GFSSE_prec_precacc12_276.txt.gz
Total_Precipitation_Accumulation
0.00 0.00 0.10 0.03 0.01 0.01 0.01 0.01 0.03 0.05 0.03 0.02 0.00 0.01 0.00 0.00 0.00 0.00 0.00 0.00 0.00 0.00 0.01 0.05 0.02 0.03 0.08 0.16 0.20 0.13 0.07 0.12 0.10 0.01 0.01 0.03 0.03 0.03 0.01 0.04 0.05 0.02 0.06
0.00 0.00 0.07 0.04 0.00 0.00 0.01 0.01 0.02 0.04 0.03 0.02 0.00 0.00 0.00 0.00 0.00 0.00 0.03 0.04 0.02 0.02 0.03 0.15 0.08 0.13 0.18 0.32 0.54 0.15 0.05 0.00 0.00 0.01 0.01 0.03 0.09 0.07 0.04 0.09 0.07 0.07 0.15
0.00 0.00 0.02 0.04 0.00 0.00 0.00 0.02 0.01 0.00 0.01 0.03 0.01 0.00 0.00 0.00 0.00 0.04 0.05 0.10 0.12 0.04 0.03 0.03 0.07 0.12 0.16 0.22 0.15 0.01 0.01 0.03 0.09 0.07 0.05 0.01 0.03 0.05 0.05 0.11 0.04 0.05 0.06
0.00 0.00 0.00 0.02 0.00 0.00 0.00 0.00 0.00 0.00 0.00 0.00 0.00 0.00 0.00 0.01 0.02 0.05 0.09 0.17 0.15 0.06 0.02 0.06 0.11 0.10 0.08 0.11 0.09 0.06 0.08 0.09 0.14 0.27 0.10 0.01 0.01 0.10 0.06 0.02 0.02 0.05 0.04
0.00 0.00 0.00 0.01 0.00 0.00 0.00 0.00 0.00 0.00 0.00 0.00 0.00 0.00 0.01 0.00 0.00 0.01 0.05 0.09 0.14 0.07 0.06 0.04 0.09 0.07 0.05 0.08 0.13 0.17 0.10 0.07 0.27 0.57 0.04 0.03 0.02 0.10 0.07 0.03 0.01 0.04 0.09
0.00 0.00 0.00 0.00 0.00 0.00 0.00 0.00 0.01 0.00 0.00 0.00 0.00 0.01 0.01 0.00 0.01 0.04 0.06 0.05 0.03 0.04 0.07 0.05 0.05 0.07 0.07 0.10 0.11 0.11 0.03 0.02 0.07 0.05 0.02 0.04 0.01 0.04 0.10 0.11 0.09 0.03 0.09
0.00 0.00 0.00 0.00 0.00 0.00 0.00 0.00 0.02 0.00 0.00 0.00 0.00 0.02 0.01 0.00 0.00 0.00 0.02 0.04 0.10 0.05 0.04 0.03 0.06 0.08 0.06 0.06 0.04 0.07 0.03 0.01 0.00 0.00 0.07 0.10 0.03 0.08 0.05 0.06 0.02 0.01 0.05
0.00 0.00 0.00 0.00 0.00 0.00 0.00 0.01 0.01 0.00 0.00 0.00 0.01 0.03 0.02 0.01 0.00 0.00 0.00 0.00 0.11 0.08 0.08 0.03 0.02 0.02 0.04 0.05 0.01 0.11 0.26 0.06 0.00 0.00 0.01 0.05 0.09 0.12 0.08 0.04 0.00 0.01 0.04
0.00 0.00 0.00 0.00 0.00 0.00 0.00 0.02 0.01 0.01 0.01 0.01 0.09 0.04 0.05 0.04 0.06 0.00 0.00 0.00 0.00 0.10 0.05 0.03 0.04 0.03 0.04 0.02 0.01 0.06 0.19 0.15 0.02 0.00 0.00 0.00 0.10 0.22 0.09 0.02 0.00 0.03 0.06
0.00 0.00 0.00 0.00 0.00 0.00 0.00 0.03 0.03 0.01 0.01 0.02 0.06 0.06 0.16 0.15 0.32 0.06 0.01 0.00 0.00 0.04 0.03 0.00 0.00 0.01 0.02 0.02 0.02 0.03 0.10 0.22 0.04 0.00 0.00 0.01 0.18 0.46 0.09 0.04 0.03 0.07 0.06
0.01 0.01 0.00 0.00 0.00 0.00 0.00 0.01 0.09 0.05 0.02 0.05 0.04 0.02 0.08 0.13 0.22 0.35 0.15 0.01 0.00 0.00 0.00 0.00 0.00 0.00 0.00 0.00 0.00 0.00 0.04 0.35 0.10 0.01 0.03 0.06 0.16 0.27 0.13 0.23 0.31 0.20 0.09
0.01 0.01 0.00 0.00 0.00 0.00 0.00 0.00 0.06 0.08 0.05 0.08 0.09 0.01 0.10 0.15 0.02 0.06 0.11 0.02 0.01 0.01 0.04 0.08 0.02 0.00 0.00 0.01 0.00 0.00 0.10 0.61 0.71 0.39 0.11 0.11 0.14 0.20 0.25 0.27 0.38 0.42 0.08
0.00 0.00 0.00 0.00 0.00 0.00 0.00 0.00 0.02 0.04 0.05 0.02 0.08 0.01 0.04 0.08 0.02 0.01 0.00 0.01 0.00 0.01 0.04 0.08 0.09 0.02 0.01 0.01 0.03 0.05 0.15 0.16 1.10 0.56 0.09 0.08 0.16 0.26 0.25 0.21 0.28 0.33 0.20
0.00 0.00 0.00 0.00 0.00 0.00 0.00 0.00 0.00 0.00 0.03 0.00 0.02 0.01 0.00 0.00 0.01 0.00 0.00 0.00 0.00 0.00 0.06 0.13 0.19 0.09 0.09 0.10 0.00 0.03 0.08 0.09 0.22 0.17 0.04 0.07 0.15 0.24 0.10 0.07 0.14 0.18 0.24
0.00 0.00 0.00 0.00 0.00 0.00 0.00 0.00 0.00 0.00 0.00 0.00 0.01 0.00 0.01 0.00 0.00 0.00 0.00 0.00 0.00 0.00 0.00 0.04 0.36 0.22 0.33 0.38 0.01 0.00 0.03 0.08 0.08 0.09 0.06 0.08 0.15 0.18 0.18 0.00 0.06 0.11 0.15
0.00 0.00 0.00 0.00 0.00 0.00 0.00 0.00 0.00 0.00 0.00 0.00 0.00 0.00 0.02 0.00 0.00 0.00 0.01 0.00 0.00 0.00 0.00 0.02 0.21 0.28 0.32 0.24 0.15 0.05 0.01 0.07 0.20 0.10 0.05 0.04 0.18 0.27 0.22 0.00 0.02 0.01 0.08
0.00 0.00 0.00 0.00 0.00 0.00 0.00 0.00 0.00 0.00 0.00 0.00 0.00 0.00 0.00 0.00 0.02 0.01 0.04 0.03 0.02 0.02 0.02 0.03 0.14 0.28 0.39 0.38 0.56 0.24 0.07 0.08 0.21 0.14 0.10 0.09 0.09 0.22 0.26 0.02 0.06 0.01 0.05
0.00 0.00 0.00 0.00 0.00 0.00 0.00 0.00 0.00 0.00 0.00 0.00 0.00 0.00 0.00 0.01 0.19 0.32 0.34 0.32 0.46 0.22 0.20 0.27 0.53 0.54 0.53 0.41 0.64 0.61 0.40 0.07 0.03 0.10 0.13 0.30 0.30 0.07 0.11 0.07 0.06 0.03 0.06
0.02 0.00 0.00 0.00 0.00 0.00 0.00 0.00 0.00 0.00 0.00 0.00 0.00 0.00 0.01 0.04 0.13 0.33 0.48 0.44 0.42 0.11 0.25 0.69 0.54 0.51 0.80 0.76 0.62 0.47 0.28 0.18 0.03 0.16 0.32 0.27 0.18 0.07 0.01 0.06 0.06 0.02 0.03
0.03 0.01 0.00 0.00 0.00 0.00 0.00 0.01 0.00 0.00 0.00 0.00 0.00 0.00 0.04 0.11 0.03 0.25 0.31 0.56 0.60 0.19 0.43 0.63 0.74 0.46 0.62 0.83 0.79 0.57 0.27 0.16 0.07 0.08 0.25 0.40 0.13 0.05 0.04 0.07 0.02 0.00 0.02
0.02 0.01 0.00 0.00 0.02 0.01 0.00 0.00 0.00 0.00 0.00 0.00 0.00 0.00 0.07 0.07 0.03 0.18 0.38 0.60 0.36 0.41 0.44 0.39 0.41 0.40 0.49 0.78 0.86 0.53 0.41 0.47 0.23 0.05 0.26 0.38 0.36 0.04 0.06 0.12 0.02 0.00 0.00
0.00 0.00 0.00 0.00 0.02 0.02 0.00 0.00 0.00 0.00 0.02 0.07 0.04 0.01 0.06 0.11 0.09 0.04 0.23 0.30 0.21 0.24 0.09 0.06 0.25 0.32 0.69 0.59 0.50 0.51 0.41 0.40 0.44 0.10 0.12 0.27 0.40 0.24 0.09 0.05 0.00 0.00 0.00
0.00 0.00 0.00 0.00 0.00 0.02 0.02 0.02 0.09 0.09 0.09 0.10 0.42 0.26 0.10 0.07 0.03 0.00 0.03 0.10 0.08 0.16 0.24 0.36 0.32 0.23 0.79 0.66 0.48 0.64 0.47 0.40 0.32 0.42 0.21 0.19 0.33 0.39 0.10 0.04 0.01 0.00 0.00
0.00 0.00 0.00 0.00 0.01 0.01 0.01 0.06 0.10 0.02 0.04 0.03 0.13 0.40 0.60 0.22 0.05 0.03 0.04 0.08 0.26 0.19 0.24 0.32 0.23 0.17 0.38 0.55 0.39 0.26 0.30 0.47 0.47 0.44 0.42 0.31 0.26 0.29 0.16 0.01 0.00 0.00 0.00
0.00 0.00 0.00 0.00 0.00 0.01 0.01 0.01 0.09 0.04 0.05 0.10 0.12 0.12 0.17 0.26 0.14 0.08 0.03 0.08 0.09 0.06 0.12 0.15 0.18 0.15 0.18 0.46 0.55 0.51 0.44 0.53 0.48 0.39 0.41 0.16 0.17 0.19 0.17 0.01 0.00 0.00 0.00
0.00 0.00 0.00 0.00 0.01 0.01 0.01 0.01 0.10 0.22 0.13 0.33 0.25 0.25 0.22 0.18 0.17 0.20 0.12 0.05 0.04 0.05 0.14 0.36 0.47 0.32 0.31 0.40 0.46 0.51 0.42 0.34 0.44 0.34 0.26 0.27 0.04 0.02 0.10 0.03 0.00 0.00 0.00

GFSSE_prec_precacc12_279.txt.gz
Total_Precipitation_Accumulation
0.00 0.00 0.01 0.00 0.00 0.01 0.00 0.01 0.03 0.04 0.02 0.01 0.00 0.00 0.00 0.00 0.00 0.00 0.00 0.00 0.00 0.00 0.01 0.05 0.02 0.04 0.13 0.21 0.21 0.13 0.05 0.08 0.07 0.01 0.01 0.03 0.02 0.02 0.02 0.04 0.05 0.02 0.08
0.00 0.00 0.01 0.00 0.00 0.00 0.01 0.02 0.03 0.04 0.03 0.01 0.00 0.00 0.00 0.00 0.00 0.00 0.03 0.04 0.02 0.03 0.03 0.15 0.08 0.10 0.21 0.43 0.54 0.15 0.05 0.01 0.00 0.01 0.01 0.03 0.07 0.06 0.05 0.09 0.07 0.08 0.17
0.00 0.00 0.00 0.00 0.00 0.00 0.00 0.03 0.01 0.00 0.01 0.03 0.01 0.00 0.00 0.00 0.00 0.04 0.05 0.10 0.12 0.05 0.03 0.03 0.07 0.18 0.24 0.24 0.13 0.00 0.01 0.08 0.17 0.13 0.06 0.00 0.03 0.07 0.08 0.11 0.03 0.04 0.06
0.00 0.00 0.00 0.00 0.00 0.00 0.00 0.01 0.00 0.00 0.00 0.00 0.00 0.00 0.00 0.00 0.01 0.05 0.10 0.17 0.14 0.05 0.02 0.06 0.12 0.12 0.07 0.09 0.06 0.04 0.02 0.07 0.17 0.32 0.13 0.00 0.00 0.12 0.06 0.04 0.02 0.04 0.02
0.00 0.00 0.00 0.00 0.00 0.00 0.00 0.00 0.00 0.00 0.00 0.00 0.00 0.00 0.00 0.00 0.00 0.01 0.05 0.09 0.13 0.07 0.05 0.06 0.12 0.08 0.06 0.07 0.12 0.16 0.08 0.07 0.29 0.60 0.05 0.02 0.01 0.09 0.07 0.03 0.01 0.04 0.09
0.00 0.00 0.00 0.00 0.00 0.00 0.00 0.00 0.00 0.00 0.00 0.00 0.00 0.01 0.01 0.00 0.01 0.05 0.07 0.05 0.03 0.05 0.07 0.06 0.07 0.09 0.07 0.09 0.10 0.07 0.03 0.06 0.11 0.09 0.03 0.03 0.01 0.03 0.12 0.11 0.09 0.03 0.08
0.00 0.00 0.00 0.00 0.00 0.00 0.00 0.00 0.00 0.00 0.00 0.00 0.01 0.01 0.01 0.00 0.01 0.03 0.04 0.05 0.11 0.06 0.05 0.04 0.06 0.09 0.08 0.07 0.03 0.05 0.01 0.04 0.03 0.03 0.09 0.09 0.02 0.08 0.05 0.05 0.02 0.02 0.06
0.00 0.00 0.00 0.00 0.00 0.00 0.00 0.01 0.00 0.00 0.00 0.00 0.02 0.02 0.01 0.01 0.00 0.00 0.01 0.04 0.13 0.09 0.08 0.03 0.02 0.02 0.05 0.04 0.00 0.08 0.19 0.15 0.02 0.03 0.04 0.05 0.06 0.12 0.05 0.02 0.00 0.02 0.06
0.00 0.00 0.00 0.00 0.00 0.00 0.01 0.02 0.01 0.00 0.00 0.00 0.11 0.05 0.04 0.04 0.05 0.00 0.00 0.01 0.01 0.12 0.05 0.03 0.04 0.03 0.05 0.03 0.01 0.05 0.15 0.19 0.09 0.02 0.00 0.00 0.05 0.17 0.05 0.01 0.00 0.03 0.07
0.04 0.00 0.00 0.00 0.00 0.00 0.00 0.03 0.03 0.00 0.01 0.00 0.05 0.06 0.17 0.11 0.20 0.02 0.00 0.00 0.00 0.04 0.03 0.00 0.00 0.01 0.02 0.02 0.02 0.02 0.07 0.10 0.14 0.03 0.00 0.01 0.12 0.33 0.08 0.03 0.02 0.07 0.04
0.02 0.00 0.00 0.00 0.00 0.00 0.00 0.01 0.07 0.03 0.02 0.03 0.01 0.01 0.10 0.25 0.21 0.24 0.12 0.03 0.00 0.00 0.00 0.00 0.00 0.00 0.00 0.00 0.00 0.01 0.08 0.33 0.20 0.08 0.06 0.06 0.11 0.19 0.11 0.17 0.19 0.14 0.08
0.00 0.00 0.00 0.00 0.00 0.00 0.00 0.00 0.05 0.06 0.01 0.07 0.07 0.00 0.12 0.26 0.21 0.09 0.15 0.06 0.02 0.01 0.02 0.01 0.00 0.00 0.00 0.02 0.05 0.06 0.10 0.68 0.77 0.41 0.12 0.17 0.15 0.12 0.14 0.14 0.20 0.27 0.07
0.00 0.00 0.00 0.00 0.00 0.00 0.00 0.00 0.02 0.04 0.04 0.01 0.08 0.01 0.04 0.10 0.05 0.03 0.07 0.04 0.01 0.02 0.02 0.01 0.00 0.02 0.06 0.07 0.18 0.20 0.11 0.28 1.30 0.58 0.10 0.11 0.12 0.10 0.08 0.05 0.08 0.18 0.11
0.00 0.00 0.00 0.00 0.00 0.00 0.00 0.00 0.00 0.00 0.03 0.00 0.02 0.01 0.01 0.00 0.01 0.00 0.01 0.00 0.00 0.01 0.04 0.05 0.13 0.08 0.12 0.14 0.06 0.15 0.17 0.67 0.30 0.22 0.05 0.08 0.10 0.09 0.01 0.01 0.00 0.02 0.04
0.00 0.00 0.00 0.00 0.00 0.00 0.00 0.00 0.00 0.00 0.00 0.00 0.01 0.00 0.00 0.00 0.00 0.00 0.00 0.00 0.00 0.00 0.02 0.07 0.37 0.21 0.35 0.41 0.02 0.02 0.16 0.35 0.12 0.11 0.08 0.07 0.11 0.10 0.11 0.00 0.02 0.04 0.02
0.00 0.00 0.00 0.00 0.00 0.00 0.00 0.00 0.00 0.00 0.00 0.00 0.00 0.00 0.00 0.00 0.00 0.00 0.01 0.00 0.00 0.00 0.00 0.03 0.21 0.35 0.36 0.26 0.16 0.04 0.03 0.11 0.24 0.13 0.09 0.03 0.09 0.24 0.20 0.00 0.02 0.02 0.01
0.00 0.00 0.00 0.00 0.00 0.00 0.00 0.00 0.00 0.00 0.00 0.00 0.00 0.00 0.00 0.00 0.01 0.01 0.04 0.03 0.02 0.03 0.06 0.15 0.16 0.28 0.39 0.39 0.51 0.22 0.08 0.09 0.24 0.19 0.12 0.09 0.07 0.19 0.27 0.04 0.07 0.03 0.00
0.00 0.00 0.05 0.01 0.00 0.00 0.00 0.00 0.00 0.00 0.00 0.00 0.00 0.00 0.00 0.00 0.13 0.27 0.34 0.32 0.42 0.22 0.24 0.27 0.54 0.62 0.58 0.45 0.52 0.52 0.37 0.08 0.04 0.10 0.15 0.29 0.27 0.04 0.10 0.11 0.12 0.04 0.06
0.00 0.04 0.11 0.02 0.00 0.00 0.00 0.00 0.00 0.00 0.00 0.00 0.00 0.00 0.01 0.04 0.13 0.31 0.48 0.43 0.41 0.11 0.27 0.65 0.54 0.56 0.85 0.75 0.58 0.46 0.28 0.20 0.07 0.15 0.32 0.30 0.23 0.04 0.01 0.08 0.08 0.01 0.02
0.00 0.03 0.02 0.00 0.00 0.00 0.00 0.01 0.00 0.00 0.00 0.00 0.00 0.00 0.04 0.11 0.03 0.24 0.28 0.50 0.60 0.19 0.49 0.66 0.87 0.39 0.54 0.89 0.84 0.62 0.26 0.19 0.07 0.18 0.22 0.40 0.19 0.05 0.04 0.07 0.02 0.00 0.01
0.00 0.00 0.00 0.00 0.01 0.01 0.00 0.00 0.00 0.00 0.00 0.00 0.00 0.00 0.06 0.06 0.02 0.14 0.32 0.45 0.32 0.42 0.43 0.36 0.34 0.35 0.47 0.78 0.90 0.54 0.46 0.52 0.32 0.14 0.30 0.37 0.35 0.04 0.05 0.12 0.02 0.00 0.00
0.00 0.00 0.00 0.00 0.00 0.00 0.00 0.00 0.00 0.00 0.00 0.00 0.01 0.00 0.01 0.00 0.02 0.02 0.20 0.21 0.12 0.23 0.08 0.04 0.20 0.36 0.76 0.55 0.45 0.53 0.43 0.47 0.60 0.20 0.14 0.27 0.38 0.26 0.09 0.05 0.00 0.00 0.00
0.00 0.00 0.00 0.00 0.00 0.00 0.00 0.02 0.09 0.09 0.08 0.02 0.09 0.04 0.02 0.03 0.02 0.00 0.02 0.08 0.07 0.12 0.23 0.22 0.27 0.23 0.70 0.62 0.41 0.60 0.37 0.35 0.39 0.50 0.22 0.18 0.36 0.44 0.10 0.04 0.01 0.00 0.00
0.00 0.00 0.00 0.00 0.00 0.00 0.00 0.04 0.06 0.02 0.04 0.01 0.01 0.02 0.26 0.17 0.02 0.02 0.00 0.04 0.22 0.11 0.10 0.20 0.31 0.27 0.37 0.44 0.37 0.25 0.31 0.46 0.38 0.46 0.44 0.31 0.35 0.40 0.16 0.01 0.00 0.00 0.00
0.00 0.00 0.00 0.00 0.00 0.01 0.01 0.00 0.06 0.01 0.01 0.03 0.03 0.04 0.12 0.21 0.08 0.04 0.02 0.01 0.05 0.05 0.08 0.12 0.19 0.28 0.30 0.41 0.45 0.47 0.46 0.54 0.54 0.46 0.48 0.22 0.19 0.29 0.19 0.01 0.00 0.00 0.00
0.00 0.00 0.00 0.00 0.00 0.00 0.01 0.01 0.06 0.16 0.14 0.38 0.30 0.28 0.15 0.11 0.10 0.14 0.11 0.04 0.01 0.06 0.09 0.29 0.36 0.31 0.46 0.56 0.62 0.52 0.31 0.33 0.50 0.46 0.30 0.34 0.08 0.06 0.13 0.03 0.00 0.00 0.00

GFSSE_prec_precacc12_285.txt.gz
Total_Precipitation_Accumulation
0.00 0.01 0.02 0.00 0.00 0.00 0.00 0.00 0.00 0.00 0.00 0.00 0.00 0.00 0.00 0.00 0.00 0.00 0.00 0.00 0.00 0.03 0.04 0.03 0.06 0.08 0.13 0.19 0.06 0.08 0.00 0.00 0.00 0.00 0.01 0.02 0.01 0.02 0.02 0.04 0.02 0.01 0.08
0.00 0.00 0.01 0.01 0.00 0.00 0.00 0.01 0.00 0.00 0.00 0.00 0.00 0.00 0.00 0.00 0.00 0.00 0.02 0.00 0.01 0.04 0.04 0.03 0.06 0.13 0.18 0.31 0.18 0.01 0.01 0.01 0.01 0.01 0.00 0.01 0.04 0.02 0.07 0.09 0.05 0.05 0.10
0.00 0.00 0.01 0.02 0.01 0.00 0.00 0.02 0.01 0.00 0.00 0.00 0.00 0.00 0.00 0.00 0.00 0.01 0.02 0.02 0.04 0.04 0.03 0.07 0.14 0.23 0.17 0.16 0.03 0.01 0.01 0.09 0.18 0.12 0.02 0.00 0.02 0.08 0.08 0.10 0.04 0.04 0.05
0.00 0.00 0.00 0.02 0.01 0.00 0.00 0.01 0.01 0.00 0.00 0.00 0.00 0.00 0.00 0.00 0.00 0.01 0.07 0.07 0.07 0.04 0.01 0.07 0.13 0.08 0.01 0.00 0.00 0.00 0.01 0.09 0.18 0.23 0.05 0.00 0.04 0.20 0.10 0.05 0.03 0.05 0.07
0.00 0.00 0.00 0.02 0.01 0.00 0.00 0.00 0.00 0.00 0.00 0.00 0.00 0.00 0.00 0.00 0.00 0.01 0.04 0.02 0.06 0.06 0.03 0.05 0.11 0.07 0.03 0.02 0.05 0.11 0.07 0.09 0.28 0.51 0.04 0.00 0.02 0.11 0.03 0.01 0.01 0.04 0.07
0.00 0.00 0.00 0.01 0.00 0.00 0.00 0.00 0.00 0.01 0.00 0.00 0.00 0.00 0.00 0.00 0.00 0.01 0.05 0.02 0.03 0.05 0.04 0.04 0.05 0.08 0.06 0.09 0.12 0.04 0.03 0.08 0.11 0.09 0.03 0.00 0.00 0.04 0.07 0.04 0.02 0.04 0.14
0.00 0.00 0.00 0.01 0.01 0.01 0.01 0.01 0.01 0.01 0.00 0.00 0.00 0.00 0.01 0.00 0.01 0.03 0.03 0.02 0.05 0.05 0.03 0.01 0.03 0.04 0.06 0.08 0.01 0.00 0.02 0.09 0.04 0.03 0.08 0.03 0.01 0.11 0.04 0.03 0.01 0.01 0.06
0.00 0.00 0.00 0.00 0.01 0.01 0.01 0.01 0.01 0.00 0.00 0.00 0.02 0.01 0.00 0.00 0.00 0.00 0.06 0.08 0.06 0.02 0.02 0.01 0.03 0.01 0.04 0.03 0.00 0.01 0.06 0.11 0.02 0.03 0.04 0.00 0.04 0.09 0.01 0.00 0.01 0.01 0.03
0.00 0.00 0.00 0.00 0.01 0.01 0.02 0.01 0.01 0.00 0.00 0.00 0.10 0.02 0.00 0.00 0.01 0.00 0.00 0.02 0.02 0.04 0.01 0.02 0.04 0.02 0.02 0.01 0.01 0.02 0.05 0.12 0.08 0.02 0.00 0.01 0.02 0.02 0.02 0.02 0.01 0.02 0.02
0.04 0.00 0.00 0.00 0.00 0.00 0.01 0.02 0.01 0.00 0.00 0.00 0.05 0.03 0.06 0.00 0.02 0.00 0.00 0.01 0.01 0.01 0.01 0.01 0.02 0.01 0.02 0.03 0.03 0.06 0.10 0.09 0.11 0.03 0.00 0.02 0.00 0.00 0.01 0.02 0.02 0.02 0.03
0.02 0.00 0.00 0.00 0.00 0.00 0.00 0.01 0.03 0.00 0.01 0.01 0.00 0.01 0.09 0.20 0.16 0.08 0.04 0.02 0.00 0.00 0.00 0.01 0.02 0.01 0.02 0.04 0.03 0.05 0.10 0.24 0.15 0.07 0.05 0.03 0.00 0.00 0.01 0.01 0.02 0.01 0.02
0.00 0.00 0.00 0.00 0.00 0.00 0.00 0.00 0.02 0.01 0.01 0.01 0.00 0.05 0.15 0.24 0.22 0.10 0.25 0.15 0.01 0.00 0.00 0.00 0.02 0.04 0.06 0.07 0.09 0.10 0.14 0.59 0.77 0.29 0.11 0.14 0.05 0.00 0.00 0.01 0.04 0.07 0.02
0.00 0.00 0.00 0.00 0.00 0.00 0.00 0.00 0.00 0.00 0.01 0.00 0.01 0.05 0.06 0.09 0.05 0.03 0.10 0.23 0.05 0.01 0.01 0.01 0.03 0.06 0.10 0.10 0.19 0.17 0.12 0.30 1.28 0.43 0.09 0.11 0.04 0.00 0.00 0.01 0.01 0.05 0.04
0.00 0.00 0.00 0.00 0.00 0.00 0.00 0.00 0.00 0.00 0.00 0.00 0.00 0.02 0.02 0.00 0.01 0.00 0.01 0.00 0.00 0.04 0.07 0.06 0.08 0.08 0.09 0.12 0.18 0.19 0.20 0.82 0.30 0.16 0.04 0.12 0.05 0.00 0.00 0.01 0.01 0.01 0.00
0.00 0.00 0.00 0.00 0.00 0.00 0.00 0.00 0.00 0.00 0.00 0.00 0.00 0.00 0.00 0.00 0.00 0.00 0.00 0.00 0.00 0.01 0.09 0.15 0.15 0.15 0.36 0.29 0.14 0.04 0.14 0.39 0.12 0.08 0.06 0.13 0.16 0.06 0.03 0.00 0.02 0.03 0.01
0.01 0.00 0.00 0.00 0.00 0.00 0.00 0.00 0.00 0.00 0.00 0.00 0.00 0.00 0.01 0.00 0.00 0.00 0.00 0.00 0.00 0.00 0.00 0.05 0.15 0.19 0.36 0.20 0.13 0.09 0.04 0.08 0.13 0.12 0.07 0.03 0.12 0.15 0.18 0.06 0.05 0.16 0.04
0.01 0.02 0.04 0.01 0.01 0.00 0.00 0.00 0.00 0.00 0.00 0.00 0.00 0.00 0.01 0.00 0.00 0.01 0.03 0.02 0.01 0.04 0.09 0.20 0.22 0.24 0.16 0.23 0.21 0.09 0.04 0.05 0.09 0.12 0.07 0.04 0.05 0.21 0.22 0.22 0.18 0.17 0.05
0.03 0.07 0.18 0.12 0.08 0.03 0.00 0.00 0.00 0.00 0.00 0.00 0.00 0.00 0.00 0.00 0.04 0.04 0.09 0.13 0.09 0.08 0.08 0.20 0.36 0.61 0.57 0.32 0.30 0.19 0.09 0.03 0.02 0.09 0.14 0.12 0.17 0.15 0.18 0.29 0.27 0.16 0.12
0.04 0.18 0.32 0.16 0.07 0.09 0.00 0.00 0.00 0.00 0.00 0.00 0.00 0.00 0.00 0.02 0.03 0.06 0.12 0.10 0.05 0.12 0.18 0.29 0.26 0.40 0.61 0.46 0.35 0.31 0.09 0.13 0.07 0.07 0.08 0.13 0.21 0.05 0.13 0.13 0.17 0.14 0.09
0.06 0.09 0.09 0.07 0.06 0.08 0.03 0.00 0.00 0.00 0.00 0.00 0.01 0.00 0.00 0.00 0.00 0.03 0.06 0.20 0.18 0.21 0.40 0.35 0.49 0.25 0.24 0.57 0.60 0.40 0.13 0.25 0.10 0.17 0.04 0.14 0.12 0.03 0.08 0.10 0.12 0.07 0.11
0.04 0.05 0.04 0.05 0.04 0.04 0.02 0.01 0.00 0.00 0.00 0.00 0.00 0.00 0.00 0.00 0.00 0.04 0.04 0.07 0.14 0.10 0.12 0.09 0.35 0.35 0.22 0.42 0.59 0.29 0.25 0.37 0.32 0.20 0.12 0.13 0.07 0.01 0.04 0.04 0.01 0.03 0.06
0.00 0.01 0.03 0.02 0.04 0.07 0.04 0.01 0.00 0.00 0.00 0.00 0.00 0.00 0.00 0.00 0.00 0.03 0.05 0.01 0.01 0.04 0.04 0.02 0.05 0.28 0.47 0.21 0.31 0.31 0.31 0.29 0.45 0.16 0.04 0.05 0.15 0.16 0.05 0.03 0.00 0.00 0.02
0.00 0.00 0.00 0.00 0.00 0.02 0.06 0.05 0.07 0.09 0.08 0.00 0.01 0.00 0.00 0.00 0.03 0.00 0.00 0.00 0.00 0.01 0.14 0.08 0.11 0.10 0.29 0.11 0.16 0.28 0.14 0.22 0.23 0.27 0.15 0.05 0.15 0.25 0.07 0.04 0.01 0.00 0.00
0.00 0.00 0.00 0.00 0.00 0.00 0.02 0.09 0.07 0.04 0.04 0.01 0.02 0.00 0.01 0.00 0.01 0.00 0.01 0.00 0.00 0.00 0.01 0.10 0.25 0.25 0.14 0.10 0.09 0.16 0.17 0.22 0.12 0.15 0.26 0.21 0.22 0.23 0.10 0.01 0.00 0.00 0.00
0.00 0.00 0.00 0.00 0.00 0.01 0.03 0.04 0.09 0.03 0.03 0.03 0.02 0.02 0.00 0.00 0.00 0.00 0.00 0.00 0.00 0.01 0.01 0.05 0.14 0.41 0.22 0.16 0.10 0.19 0.19 0.26 0.23 0.15 0.31 0.25 0.16 0.19 0.14 0.01 0.00 0.00 0.00
0.00 0.00 0.00 0.00 0.00 0.01 0.01 0.03 0.08 0.12 0.12 0.29 0.22 0.17 0.03 0.00 0.00 0.00 0.00 0.00 0.00 0.02 0.07 0.06 0.14 0.21 0.41 0.50 0.43 0.30 0.16 0.15 0.33 0.34 0.22 0.39 0.15 0.07 0.08 0.03 0.00 0.00 0.00

GFSSE_prec_precacc12_291.txt.gz
Total_Precipitation_Accumulation
0.00 0.01 0.11 0.03 0.02 0.10 0.10 0.04 0.02 0.03 0.00 0.00 0.00 0.00 0.00 0.00 0.00 0.00 0.00 0.02 0.02 0.07 0.03 0.10 0.11 0.06 0.03 0.02 0.00 0.01 0.03 0.03 0.01 0.03 0.05 0.05 0.03 0.05 0.06 0.03 0.02 0.02 0.04
0.00 0.00 0.05 0.02 0.01 0.07 0.08 0.04 0.03 0.01 0.00 0.00 0.00 0.00 0.00 0.00 0.00 0.01 0.00 0.00 0.03 0.07 0.04 0.09 0.11 0.07 0.06 0.01 0.01 0.01 0.02 0.02 0.03 0.04 0.02 0.03 0.07 0.06 0.05 0.02 0.03 0.03 0.03
0.00 0.00 0.02 0.02 0.02 0.02 0.02 0.01 0.00 0.00 0.00 0.00 0.00 0.00 0.00 0.00 0.01 0.01 0.00 0.04 0.11 0.08 0.11 0.15 0.09 0.07 0.06 0.02 0.01 0.02 0.03 0.04 0.04 0.02 0.02 0.02 0.07 0.15 0.09 0.07 0.05 0.03 0.07
0.00 0.00 0.00 0.02 0.02 0.00 0.00 0.00 0.00 0.00 0.00 0.00 0.00 0.00 0.00 0.03 0.03 0.01 0.04 0.08 0.17 0.21 0.05 0.03 0.07 0.04 0.02 0.00 0.00 0.02 0.08 0.06 0.04 0.01 0.00 0.00 0.06 0.18 0.11 0.06 0.04 0.02 0.07
0.00 0.00 0.00 0.03 0.01 0.00 0.00 0.00 0.00 0.00 0.00 0.00 0.00 0.01 0.02 0.10 0.03 0.06 0.07 0.16 0.14 0.16 0.18 0.07 0.07 0.01 0.00 0.01 0.05 0.12 0.08 0.07 0.01 0.00 0.00 0.00 0.02 0.12 0.04 0.04 0.03 0.01 0.03
0.00 0.00 0.01 0.01 0.00 0.00 0.00 0.01 0.01 0.01 0.00 0.00 0.00 0.01 0.03 0.02 0.05 0.09 0.03 0.17 0.18 0.20 0.06 0.02 0.04 0.01 0.03 0.04 0.06 0.04 0.02 0.02 0.00 0.00 0.00 0.01 0.02 0.10 0.05 0.02 0.04 0.06 0.13
0.00 0.00 0.00 0.03 0.01 0.01 0.01 0.01 0.02 0.01 0.00 0.00 0.00 0.00 0.01 0.00 0.05 0.03 0.05 0.16 0.16 0.13 0.01 0.01 0.02 0.02 0.03 0.04 0.02 0.01 0.02 0.05 0.01 0.00 0.01 0.03 0.05 0.16 0.03 0.05 0.06 0.11 0.06
0.00 0.00 0.00 0.02 0.01 0.01 0.01 0.02 0.03 0.00 0.00 0.00 0.00 0.00 0.00 0.00 0.00 0.03 0.09 0.12 0.12 0.07 0.02 0.01 0.04 0.01 0.01 0.07 0.07 0.02 0.01 0.00 0.00 0.00 0.01 0.00 0.05 0.12 0.03 0.06 0.02 0.04 0.04
0.00 0.00 0.00 0.01 0.01 0.01 0.02 0.04 0.04 0.00 0.00 0.01 0.01 0.01 0.00 0.01 0.01 0.02 0.04 0.07 0.04 0.06 0.01 0.03 0.05 0.01 0.00 0.01 0.07 0.05 0.00 0.01 0.00 0.00 0.00 0.01 0.06 0.06 0.06 0.04 0.05 0.05 0.02
0.00 0.00 0.00 0.00 0.01 0.01 0.02 0.08 0.04 0.00 0.01 0.02 0.01 0.01 0.03 0.04 0.03 0.00 0.04 0.07 0.07 0.06 0.03 0.04 0.03 0.00 0.00 0.02 0.07 0.16 0.14 0.02 0.00 0.00 0.00 0.03 0.04 0.03 0.03 0.10 0.06 0.01 0.00
0.01 0.00 0.00 0.00 0.00 0.00 0.01 0.08 0.05 0.01 0.02 0.02 0.01 0.01 0.08 0.03 0.09 0.10 0.08 0.07 0.05 0.04 0.04 0.03 0.02 0.01 0.02 0.04 0.12 0.26 0.27 0.03 0.00 0.00 0.00 0.02 0.04 0.03 0.03 0.06 0.03 0.01 0.00
0.00 0.00 0.00 0.00 0.00 0.00 0.01 0.04 0.02 0.00 0.02 0.01 0.00 0.06 0.11 0.00 0.01 0.04 0.23 0.19 0.08 0.07 0.04 0.05 0.03 0.04 0.06 0.06 0.08 0.18 0.14 0.11 0.03 0.00 0.00 0.02 0.04 0.03 0.01 0.04 0.07 0.08 0.04
0.00 0.00 0.00 0.00 0.00 0.00 0.00 0.00 0.00 0.00 0.01 0.00 0.00 0.09 0.05 0.01 0.00 0.00 0.08 0.28 0.10 0.07 0.16 0.13 0.08 0.05 0.05 0.04 0.02 0.05 0.07 0.07 0.03 0.01 0.02 0.03 0.02 0.04 0.01 0.03 0.04 0.12 0.18
0.00 0.00 0.00 0.00 0.00 0.00 0.00 0.00 0.00 0.00 0.00 0.00 0.00 0.02 0.05 0.03 0.01 0.01 0.00 0.01 0.01 0.08 0.12 0.09 0.06 0.02 0.00 0.01 0.11 0.04 0.07 0.23 0.06 0.01 0.06 0.11 0.05 0.06 0.02 0.02 0.01 0.02 0.14
0.00 0.00 0.00 0.00 0.00 0.00 0.00 0.00 0.00 0.00 0.00 0.00 0.00 0.00 0.01 0.00 0.00 0.00 0.00 0.00 0.00 0.02 0.07 0.10 0.04 0.03 0.13 0.02 0.13 0.02 0.01 0.07 0.07 0.01 0.03 0.24 0.12 0.10 0.08 0.01 0.03 0.08 0.13
0.06 0.00 0.00 0.00 0.00 0.00 0.00 0.00 0.00 0.00 0.00 0.00 0.00 0.00 0.01 0.00 0.00 0.00 0.00 0.00 0.00 0.01 0.06 0.05 0.12 0.08 0.24 0.11 0.08 0.08 0.02 0.01 0.01 0.01 0.00 0.06 0.19 0.12 0.19 0.10 0.05 0.22 0.09
0.03 0.02 0.04 0.01 0.01 0.00 0.00 0.00 0.00 0.00 0.00 0.00 0.00 0.00 0.01 0.00 0.00 0.01 0.08 0.00 0.00 0.01 0.06 0.07 0.13 0.10 0.12 0.19 0.13 0.17 0.13 0.03 0.03 0.01 0.00 0.00 0.07 0.14 0.19 0.24 0.27 0.24 0.13
0.06 0.08 0.14 0.12 0.10 0.03 0.00 0.00 0.00 0.00 0.00 0.00 0.00 0.00 0.00 0.00 0.03 0.00 0.02 0.00 0.00 0.04 0.08 0.06 0.24 0.48 0.71 0.53 0.49 0.29 0.17 0.04 0.06 0.09 0.02 0.00 0.04 0.18 0.17 0.26 0.27 0.24 0.23
0.06 0.25 0.27 0.15 0.11 0.12 0.00 0.00 0.00 0.00 0.00 0.00 0.00 0.00 0.00 0.02 0.04 0.01 0.00 0.01 0.02 0.11 0.10 0.13 0.15 0.48 0.32 0.14 0.32 0.36 0.21 0.09 0.06 0.07 0.04 0.00 0.01 0.08 0.19 0.13 0.14 0.18 0.19
0.08 0.17 0.17 0.07 0.08 0.10 0.04 0.00 0.01 0.00 0.00 0.00 0.02 0.01 0.00 0.00 0.00 0.00 0.00 0.00 0.02 0.12 0.02 0.04 0.15 0.18 0.14 0.23 0.19 0.37 0.29 0.18 0.06 0.07 0.08 0.01 0.01 0.04 0.12 0.11 0.11 0.10 0.18
0.06 0.08 0.09 0.06 0.06 0.07 0.03 0.01 0.00 0.00 0.00 0.00 0.01 0.02 0.00 0.00 0.00 0.02 0.01 0.00 0.00 0.02 0.01 0.05 0.24 0.33 0.40 0.19 0.07 0.08 0.13 0.13 0.17 0.19 0.13 0.14 0.03 0.01 0.02 0.02 0.01 0.04 0.09
0.00 0.03 0.06 0.04 0.09 0.11 0.06 0.02 0.00 0.00 0.00 0.00 0.00 0.00 0.03 0.02 0.01 0.03 0.04 0.00 0.00 0.01 0.01 0.02 0.11 0.24 0.37 0.11 0.07 0.16 0.09 0.08 0.05 0.18 0.26 0.12 0.15 0.03 0.00 0.01 0.00 0.00 0.02
0.00 0.00 0.01 0.02 0.02 0.08 0.14 0.06 0.01 0.01 0.00 0.00 0.00 0.00 0.00 0.01 0.08 0.02 0.03 0.02 0.00 0.01 0.00 0.00 0.01 0.03 0.15 0.03 0.02 0.14 0.06 0.06 0.08 0.07 0.13 0.21 0.27 0.05 0.00 0.00 0.00 0.00 0.00
0.00 0.00 0.00 0.00 0.01 0.02 0.10 0.10 0.09 0.03 0.01 0.00 0.00 0.00 0.00 0.00 0.05 0.02 0.02 0.02 0.01 0.00 0.00 0.03 0.03 0.07 0.07 0.05 0.02 0.12 0.05 0.04 0.10 0.08 0.06 0.02 0.06 0.03 0.00 0.00 0.00 0.00 0.00
0.00 0.00 0.00 0.00 0.00 0.00 0.03 0.06 0.07 0.05 0.04 0.01 0.01 0.02 0.00 0.00 0.00 0.00 0.04 0.04 0.05 0.01 0.00 0.00 0.01 0.22 0.06 0.04 0.01 0.06 0.03 0.01 0.01 0.05 0.14 0.08 0.03 0.03 0.01 0.00 0.00 0.00 0.00
0.00 0.00 0.00 0.00 0.00 0.00 0.01 0.03 0.04 0.05 0.05 0.02 0.01 0.03 0.03 0.00 0.00 0.00 0.00 0.04 0.06 0.03 0.10 0.04 0.03 0.08 0.13 0.18 0.10 0.09 0.07 0.08 0.10 0.09 0.11 0.19 0.14 0.15 0.10 0.01 0.00 0.00 0.00